Year,Month,Day,Hour,Minute,Value (Times are PST for temperature in C)
2017,05,09,00,00,7.20
2017,05,09,00,01,7.20
2017,05,09,00,02,7.20
2017,05,09,00,03,7.10
2017,05,09,00,04,7.10
2017,05,09,00,05,7.10
2017,05,09,00,06,7.10
2017,05,09,00,07,7.10
2017,05,09,00,08,7.10
2017,05,09,00,09,7.10
2017,05,09,00,10,7.00
2017,05,09,00,11,7.00
2017,05,09,00,12,6.90
2017,05,09,00,13,6.90
2017,05,09,00,14,6.90
2017,05,09,00,15,6.80
2017,05,09,00,16,6.80
2017,05,09,00,17,6.80
2017,05,09,00,18,6.80
2017,05,09,00,19,6.80
2017,05,09,00,20,6.80
2017,05,09,00,21,6.80
2017,05,09,00,22,6.70
2017,05,09,00,23,6.70
2017,05,09,00,24,6.70
2017,05,09,00,25,6.70
2017,05,09,00,26,6.70
2017,05,09,00,27,6.70
2017,05,09,00,28,6.70
2017,05,09,00,29,6.70
2017,05,09,00,30,6.70
2017,05,09,00,31,6.70
2017,05,09,00,32,6.70
2017,05,09,00,33,6.70
2017,05,09,00,34,6.70
2017,05,09,00,35,6.70
2017,05,09,00,36,6.70
2017,05,09,00,37,6.70
2017,05,09,00,38,6.70
2017,05,09,00,39,6.70
2017,05,09,00,40,6.70
2017,05,09,00,41,6.70
2017,05,09,00,42,6.70
2017,05,09,00,43,6.70
2017,05,09,00,44,6.70
2017,05,09,00,45,6.70
2017,05,09,00,46,6.70
2017,05,09,00,47,6.70
2017,05,09,00,48,6.70
2017,05,09,00,49,6.70
2017,05,09,00,50,6.60
2017,05,09,00,51,6.60
2017,05,09,00,52,6.60
2017,05,09,00,53,6.60
2017,05,09,00,54,6.60
2017,05,09,00,55,6.60
2017,05,09,00,56,6.60
2017,05,09,00,57,6.60
2017,05,09,00,58,6.60
2017,05,09,00,59,6.60
2017,05,09,01,00,6.60
2017,05,09,01,01,6.60
2017,05,09,01,02,6.60
2017,05,09,01,03,6.60
2017,05,09,01,04,6.60
2017,05,09,01,05,6.60
2017,05,09,01,06,6.60
2017,05,09,01,07,6.60
2017,05,09,01,08,6.60
2017,05,09,01,09,6.60
2017,05,09,01,10,6.60
2017,05,09,01,11,6.60
2017,05,09,01,12,6.60
2017,05,09,01,13,6.60
2017,05,09,01,14,6.60
2017,05,09,01,15,6.60
2017,05,09,01,16,6.60
2017,05,09,01,17,6.60
2017,05,09,01,18,6.60
2017,05,09,01,19,6.60
2017,05,09,01,20,6.60
2017,05,09,01,21,6.50
2017,05,09,01,22,6.50
2017,05,09,01,23,6.50
2017,05,09,01,24,6.50
2017,05,09,01,25,6.50
2017,05,09,01,26,6.50
2017,05,09,01,27,6.40
2017,05,09,01,28,6.50
2017,05,09,01,29,6.40
2017,05,09,01,30,6.50
2017,05,09,01,31,6.40
2017,05,09,01,32,6.40
2017,05,09,01,33,6.40
2017,05,09,01,34,6.40
2017,05,09,01,35,6.40
2017,05,09,01,36,6.40
2017,05,09,01,37,6.50
2017,05,09,01,38,6.50
2017,05,09,01,39,6.50
2017,05,09,01,40,6.50
2017,05,09,01,41,6.50
2017,05,09,01,42,6.50
2017,05,09,01,43,6.50
2017,05,09,01,44,6.50
2017,05,09,01,45,6.50
2017,05,09,01,46,6.50
2017,05,09,01,47,6.50
2017,05,09,01,48,6.60
2017,05,09,01,49,6.50
2017,05,09,01,50,6.50
2017,05,09,01,51,6.50
2017,05,09,01,52,6.50
2017,05,09,01,53,6.40
2017,05,09,01,54,6.40
2017,05,09,01,55,6.40
2017,05,09,01,56,6.40
2017,05,09,01,57,6.40
2017,05,09,01,58,6.50
2017,05,09,01,59,6.50
2017,05,09,02,00,6.50
2017,05,09,02,01,6.50
2017,05,09,02,02,6.50
2017,05,09,02,03,6.40
2017,05,09,02,04,6.40
2017,05,09,02,05,6.40
2017,05,09,02,06,6.50
2017,05,09,02,07,6.50
2017,05,09,02,08,6.50
2017,05,09,02,09,6.50
2017,05,09,02,10,6.50
2017,05,09,02,11,6.50
2017,05,09,02,12,6.50
2017,05,09,02,13,6.50
2017,05,09,02,14,6.50
2017,05,09,02,15,6.50
2017,05,09,02,16,6.60
2017,05,09,02,17,6.60
2017,05,09,02,18,6.60
2017,05,09,02,19,6.60
2017,05,09,02,20,6.60
2017,05,09,02,21,6.60
2017,05,09,02,22,6.60
2017,05,09,02,23,6.70
2017,05,09,02,24,6.70
2017,05,09,02,25,6.70
2017,05,09,02,26,6.70
2017,05,09,02,27,6.70
2017,05,09,02,28,6.70
2017,05,09,02,29,6.70
2017,05,09,02,30,6.60
2017,05,09,02,31,6.60
2017,05,09,02,32,6.60
2017,05,09,02,33,6.60
2017,05,09,02,34,6.50
2017,05,09,02,35,6.50
2017,05,09,02,36,6.50
2017,05,09,02,37,6.60
2017,05,09,02,38,6.60
2017,05,09,02,39,6.60
2017,05,09,02,40,6.60
2017,05,09,02,41,6.60
2017,05,09,02,42,6.60
2017,05,09,02,43,6.60
2017,05,09,02,44,6.60
2017,05,09,02,45,6.60
2017,05,09,02,46,6.60
2017,05,09,02,47,6.60
2017,05,09,02,48,6.60
2017,05,09,02,49,6.60
2017,05,09,02,50,6.60
2017,05,09,02,51,6.60
2017,05,09,02,52,6.60
2017,05,09,02,53,6.60
2017,05,09,02,54,6.60
2017,05,09,02,55,6.60
2017,05,09,02,56,6.60
2017,05,09,02,57,6.60
2017,05,09,02,58,6.60
2017,05,09,02,59,6.60
2017,05,09,03,00,6.60
2017,05,09,03,01,6.60
2017,05,09,03,02,6.60
2017,05,09,03,03,6.70
2017,05,09,03,04,6.70
2017,05,09,03,05,6.70
2017,05,09,03,06,6.70
2017,05,09,03,07,6.70
2017,05,09,03,08,6.70
2017,05,09,03,09,6.70
2017,05,09,03,10,6.70
2017,05,09,03,11,6.70
2017,05,09,03,12,6.70
2017,05,09,03,13,6.70
2017,05,09,03,14,6.60
2017,05,09,03,15,6.60
2017,05,09,03,16,6.60
2017,05,09,03,17,6.60
2017,05,09,03,18,6.60
2017,05,09,03,19,6.60
2017,05,09,03,20,6.60
2017,05,09,03,21,6.60
2017,05,09,03,22,6.60
2017,05,09,03,23,6.70
2017,05,09,03,24,6.70
2017,05,09,03,25,6.70
2017,05,09,03,26,6.70
2017,05,09,03,27,6.70
2017,05,09,03,28,6.70
2017,05,09,03,29,6.70
2017,05,09,03,30,6.70
2017,05,09,03,31,6.70
2017,05,09,03,32,6.70
2017,05,09,03,33,6.70
2017,05,09,03,34,6.70
2017,05,09,03,35,6.70
2017,05,09,03,36,6.70
2017,05,09,03,37,6.70
2017,05,09,03,38,6.70
2017,05,09,03,39,6.70
2017,05,09,03,40,6.70
2017,05,09,03,41,6.60
2017,05,09,03,42,6.60
2017,05,09,03,43,6.60
2017,05,09,03,44,6.60
2017,05,09,03,45,6.60
2017,05,09,03,46,6.60
2017,05,09,03,47,6.50
2017,05,09,03,48,6.50
2017,05,09,03,49,6.50
2017,05,09,03,50,6.50
2017,05,09,03,51,6.50
2017,05,09,03,52,6.40
2017,05,09,03,53,6.40
2017,05,09,03,54,6.40
2017,05,09,03,55,6.40
2017,05,09,03,56,6.40
2017,05,09,03,57,6.40
2017,05,09,03,58,6.40
2017,05,09,03,59,6.40
2017,05,09,04,00,6.40
2017,05,09,04,01,6.40
2017,05,09,04,02,6.40
2017,05,09,04,03,6.40
2017,05,09,04,04,6.40
2017,05,09,04,05,6.40
2017,05,09,04,06,6.40
2017,05,09,04,07,6.40
2017,05,09,04,08,6.40
2017,05,09,04,09,6.40
2017,05,09,04,10,6.40
2017,05,09,04,11,6.50
2017,05,09,04,12,6.40
2017,05,09,04,13,6.50
2017,05,09,04,14,6.40
2017,05,09,04,15,6.50
2017,05,09,04,16,6.50
2017,05,09,04,17,6.50
2017,05,09,04,18,6.40
2017,05,09,04,19,6.50
2017,05,09,04,20,6.50
2017,05,09,04,21,6.50
2017,05,09,04,22,6.50
2017,05,09,04,23,6.50
2017,05,09,04,24,6.50
2017,05,09,04,25,6.50
2017,05,09,04,26,6.50
2017,05,09,04,27,6.50
2017,05,09,04,28,6.50
2017,05,09,04,29,6.50
2017,05,09,04,30,6.60
2017,05,09,04,31,6.50
2017,05,09,04,32,6.50
2017,05,09,04,33,6.50
2017,05,09,04,34,6.50
2017,05,09,04,35,6.50
2017,05,09,04,36,6.50
2017,05,09,04,37,6.50
2017,05,09,04,38,6.50
2017,05,09,04,39,6.50
2017,05,09,04,40,6.50
2017,05,09,04,41,6.50
2017,05,09,04,42,6.50
2017,05,09,04,43,6.50
2017,05,09,04,44,6.50
2017,05,09,04,45,6.50
2017,05,09,04,46,6.50
2017,05,09,04,47,6.50
2017,05,09,04,48,6.50
2017,05,09,04,49,6.50
2017,05,09,04,50,6.50
2017,05,09,04,51,6.40
2017,05,09,04,52,6.40
2017,05,09,04,53,6.40
2017,05,09,04,54,6.40
2017,05,09,04,55,6.40
2017,05,09,04,56,6.40
2017,05,09,04,57,6.40
2017,05,09,04,58,6.40
2017,05,09,04,59,6.40
2017,05,09,05,00,6.40
2017,05,09,05,01,6.40
2017,05,09,05,02,6.40
2017,05,09,05,03,6.40
2017,05,09,05,04,6.40
2017,05,09,05,05,6.40
2017,05,09,05,06,6.30
2017,05,09,05,07,6.30
2017,05,09,05,08,6.30
2017,05,09,05,09,6.30
2017,05,09,05,10,6.30
2017,05,09,05,11,6.30
2017,05,09,05,12,6.30
2017,05,09,05,13,6.30
2017,05,09,05,14,6.30
2017,05,09,05,15,6.30
2017,05,09,05,16,6.30
2017,05,09,05,17,6.30
2017,05,09,05,18,6.30
2017,05,09,05,19,6.30
2017,05,09,05,20,6.30
2017,05,09,05,21,6.30
2017,05,09,05,22,6.30
2017,05,09,05,23,6.30
2017,05,09,05,24,6.30
2017,05,09,05,25,6.30
2017,05,09,05,26,6.30
2017,05,09,05,27,6.30
2017,05,09,05,28,6.30
2017,05,09,05,29,6.30
2017,05,09,05,30,6.30
2017,05,09,05,31,6.30
2017,05,09,05,32,6.30
2017,05,09,05,33,6.30
2017,05,09,05,34,6.30
2017,05,09,05,35,6.20
2017,05,09,05,36,6.20
2017,05,09,05,37,6.20
2017,05,09,05,38,6.20
2017,05,09,05,39,6.20
2017,05,09,05,40,6.20
2017,05,09,05,41,6.20
2017,05,09,05,42,6.20
2017,05,09,05,43,6.20
2017,05,09,05,44,6.10
2017,05,09,05,45,6.10
2017,05,09,05,46,6.10
2017,05,09,05,47,6.10
2017,05,09,05,48,6.10
2017,05,09,05,49,6.10
2017,05,09,05,50,6.10
2017,05,09,05,51,6.10
2017,05,09,05,52,6.10
2017,05,09,05,53,6.20
2017,05,09,05,54,6.20
2017,05,09,05,55,6.20
2017,05,09,05,56,6.20
2017,05,09,05,57,6.20
2017,05,09,05,58,6.20
2017,05,09,05,59,6.20
2017,05,09,06,00,6.20
2017,05,09,06,01,6.20
2017,05,09,06,02,6.20
2017,05,09,06,03,6.20
2017,05,09,06,04,6.20
2017,05,09,06,05,6.20
2017,05,09,06,06,6.20
2017,05,09,06,07,6.20
2017,05,09,06,08,6.20
2017,05,09,06,09,6.20
2017,05,09,06,10,6.20
2017,05,09,06,11,6.20
2017,05,09,06,12,6.20
2017,05,09,06,13,6.20
2017,05,09,06,14,6.20
2017,05,09,06,15,6.20
2017,05,09,06,16,6.20
2017,05,09,06,17,6.30
2017,05,09,06,18,6.30
2017,05,09,06,19,6.30
2017,05,09,06,20,6.30
2017,05,09,06,21,6.30
2017,05,09,06,22,6.30
2017,05,09,06,23,6.30
2017,05,09,06,24,6.30
2017,05,09,06,25,6.30
2017,05,09,06,26,6.30
2017,05,09,06,27,6.30
2017,05,09,06,28,6.30
2017,05,09,06,29,6.30
2017,05,09,06,30,6.30
2017,05,09,06,31,6.30
2017,05,09,06,32,6.30
2017,05,09,06,33,6.30
2017,05,09,06,34,6.30
2017,05,09,06,35,6.40
2017,05,09,06,36,6.40
2017,05,09,06,37,6.40
2017,05,09,06,38,6.40
2017,05,09,06,39,6.40
2017,05,09,06,40,6.30
2017,05,09,06,41,6.30
2017,05,09,06,42,6.40
2017,05,09,06,43,6.40
2017,05,09,06,44,6.40
2017,05,09,06,45,6.40
2017,05,09,06,46,6.40
2017,05,09,06,47,6.40
2017,05,09,06,48,6.40
2017,05,09,06,49,6.50
2017,05,09,06,50,6.50
2017,05,09,06,51,6.60
2017,05,09,06,52,6.60
2017,05,09,06,53,6.60
2017,05,09,06,54,6.60
2017,05,09,06,55,6.60
2017,05,09,06,56,6.60
2017,05,09,06,57,6.60
2017,05,09,06,58,6.60
2017,05,09,06,59,6.60
2017,05,09,07,00,6.60
2017,05,09,07,01,6.70
2017,05,09,07,02,6.70
2017,05,09,07,03,6.70
2017,05,09,07,04,6.70
2017,05,09,07,05,6.80
2017,05,09,07,06,6.80
2017,05,09,07,07,6.80
2017,05,09,07,08,6.80
2017,05,09,07,09,6.90
2017,05,09,07,10,6.90
2017,05,09,07,11,6.90
2017,05,09,07,12,6.90
2017,05,09,07,13,6.90
2017,05,09,07,14,6.90
2017,05,09,07,15,6.90
2017,05,09,07,16,6.90
2017,05,09,07,17,6.90
2017,05,09,07,18,7.00
2017,05,09,07,19,7.00
2017,05,09,07,20,7.00
2017,05,09,07,21,7.00
2017,05,09,07,22,7.00
2017,05,09,07,23,7.10
2017,05,09,07,24,7.10
2017,05,09,07,25,7.10
2017,05,09,07,26,7.10
2017,05,09,07,27,7.10
2017,05,09,07,28,7.20
2017,05,09,07,29,7.20
2017,05,09,07,30,7.20
2017,05,09,07,31,7.20
2017,05,09,07,32,7.30
2017,05,09,07,33,7.30
2017,05,09,07,34,7.30
2017,05,09,07,35,7.40
2017,05,09,07,36,7.40
2017,05,09,07,37,7.40
2017,05,09,07,38,7.40
2017,05,09,07,39,7.50
2017,05,09,07,40,7.50
2017,05,09,07,41,7.50
2017,05,09,07,42,7.50
2017,05,09,07,43,7.60
2017,05,09,07,44,7.60
2017,05,09,07,45,7.60
2017,05,09,07,46,7.60
2017,05,09,07,47,7.60
2017,05,09,07,48,7.70
2017,05,09,07,49,7.70
2017,05,09,07,50,7.70
2017,05,09,07,51,7.70
2017,05,09,07,52,7.70
2017,05,09,07,53,7.80
2017,05,09,07,54,7.80
2017,05,09,07,55,7.80
2017,05,09,07,56,7.80
2017,05,09,07,57,7.80
2017,05,09,07,58,7.90
2017,05,09,07,59,7.90
2017,05,09,08,00,7.90
2017,05,09,08,01,7.90
2017,05,09,08,02,7.90
2017,05,09,08,03,8.00
2017,05,09,08,04,8.00
2017,05,09,08,05,8.00
2017,05,09,08,06,8.00
2017,05,09,08,07,8.00
2017,05,09,08,08,8.00
2017,05,09,08,09,8.00
2017,05,09,08,10,8.00
2017,05,09,08,11,8.00
2017,05,09,08,12,8.00
2017,05,09,08,13,8.00
2017,05,09,08,14,8.10
2017,05,09,08,15,8.10
2017,05,09,08,16,8.20
2017,05,09,08,17,8.20
2017,05,09,08,18,8.30
2017,05,09,08,19,8.30
2017,05,09,08,20,8.30
2017,05,09,08,21,8.40
2017,05,09,08,22,8.40
2017,05,09,08,23,8.50
2017,05,09,08,24,8.50
2017,05,09,08,25,8.60
2017,05,09,08,26,8.60
2017,05,09,08,27,8.70
2017,05,09,08,28,8.70
2017,05,09,08,29,8.70
2017,05,09,08,30,8.70
2017,05,09,08,31,8.70
2017,05,09,08,32,8.80
2017,05,09,08,33,8.80
2017,05,09,08,34,8.80
2017,05,09,08,35,8.80
2017,05,09,08,36,8.80
2017,05,09,08,37,8.80
2017,05,09,08,38,8.80
2017,05,09,08,39,8.80
2017,05,09,08,40,8.80
2017,05,09,08,41,8.80
2017,05,09,08,42,8.80
2017,05,09,08,43,8.80
2017,05,09,08,44,8.80
2017,05,09,08,45,8.80
2017,05,09,08,46,8.80
2017,05,09,08,47,8.80
2017,05,09,08,48,8.80
2017,05,09,08,49,8.80
2017,05,09,08,50,8.80
2017,05,09,08,51,8.80
2017,05,09,08,52,8.80
2017,05,09,08,53,8.80
2017,05,09,08,54,8.90
2017,05,09,08,55,8.90
2017,05,09,08,56,8.90
2017,05,09,08,57,9.00
2017,05,09,08,58,9.00
2017,05,09,08,59,9.00
2017,05,09,09,00,9.10
2017,05,09,09,01,9.10
2017,05,09,09,02,9.10
2017,05,09,09,03,9.10
2017,05,09,09,04,9.10
2017,05,09,09,05,9.10
2017,05,09,09,06,9.10
2017,05,09,09,07,9.10
2017,05,09,09,08,9.20
2017,05,09,09,09,9.20
2017,05,09,09,10,9.20
2017,05,09,09,11,9.20
2017,05,09,09,12,9.20
2017,05,09,09,13,9.20
2017,05,09,09,14,9.20
2017,05,09,09,15,9.20
2017,05,09,09,16,9.20
2017,05,09,09,17,9.20
2017,05,09,09,18,9.20
2017,05,09,09,19,9.20
2017,05,09,09,20,9.20
2017,05,09,09,21,9.20
2017,05,09,09,22,9.20
2017,05,09,09,23,9.20
2017,05,09,09,24,9.30
2017,05,09,09,25,9.30
2017,05,09,09,26,9.30
2017,05,09,09,27,9.30
2017,05,09,09,28,9.30
2017,05,09,09,29,9.30
2017,05,09,09,30,9.40
2017,05,09,09,31,9.40
2017,05,09,09,32,9.40
2017,05,09,09,33,9.40
2017,05,09,09,34,9.50
2017,05,09,09,35,9.50
2017,05,09,09,36,9.60
2017,05,09,09,37,9.60
2017,05,09,09,38,9.60
2017,05,09,09,39,9.70
2017,05,09,09,40,9.70
2017,05,09,09,41,9.70
2017,05,09,09,42,9.80
2017,05,09,09,43,9.90
2017,05,09,09,44,9.90
2017,05,09,09,45,9.90
2017,05,09,09,46,10.00
2017,05,09,09,47,10.10
2017,05,09,09,48,10.20
2017,05,09,09,49,10.30
2017,05,09,09,50,10.40
2017,05,09,09,51,10.50
2017,05,09,09,52,10.60
2017,05,09,09,53,10.70
2017,05,09,09,54,10.70
2017,05,09,09,55,10.70
2017,05,09,09,56,10.70
2017,05,09,09,57,10.70
2017,05,09,09,58,10.60
2017,05,09,09,59,10.60
2017,05,09,10,00,10.60
2017,05,09,10,01,10.60
2017,05,09,10,02,10.60
2017,05,09,10,03,10.60
2017,05,09,10,04,10.70
2017,05,09,10,05,10.70
2017,05,09,10,06,10.80
2017,05,09,10,07,10.80
2017,05,09,10,08,10.80
2017,05,09,10,09,10.80
2017,05,09,10,10,10.80
2017,05,09,10,11,10.80
2017,05,09,10,12,10.90
2017,05,09,10,13,11.00
2017,05,09,10,14,11.10
2017,05,09,10,15,11.20
2017,05,09,10,16,11.30
2017,05,09,10,17,11.40
2017,05,09,10,18,11.50
2017,05,09,10,19,11.50
2017,05,09,10,20,11.60
2017,05,09,10,21,11.60
2017,05,09,10,22,11.60
2017,05,09,10,23,11.70
2017,05,09,10,24,11.80
2017,05,09,10,25,11.80
2017,05,09,10,26,11.80
2017,05,09,10,27,11.80
2017,05,09,10,28,11.80
2017,05,09,10,29,11.90
2017,05,09,10,30,11.90
2017,05,09,10,31,11.90
2017,05,09,10,32,12.00
2017,05,09,10,33,12.00
2017,05,09,10,34,12.00
2017,05,09,10,35,12.10
2017,05,09,10,36,12.10
2017,05,09,10,37,12.10
2017,05,09,10,38,12.10
2017,05,09,10,39,12.10
2017,05,09,10,40,12.00
2017,05,09,10,41,12.00
2017,05,09,10,42,12.10
2017,05,09,10,43,12.10
2017,05,09,10,44,12.10
2017,05,09,10,45,12.10
2017,05,09,10,46,12.10
2017,05,09,10,47,12.10
2017,05,09,10,48,12.10
2017,05,09,10,49,12.10
2017,05,09,10,50,12.10
2017,05,09,10,51,12.10
2017,05,09,10,52,12.10
2017,05,09,10,53,12.10
2017,05,09,10,54,12.20
2017,05,09,10,55,12.20
2017,05,09,10,56,12.30
2017,05,09,10,57,12.40
2017,05,09,10,58,12.40
2017,05,09,10,59,12.40
2017,05,09,11,00,12.40
2017,05,09,11,01,12.30
2017,05,09,11,02,12.40
2017,05,09,11,03,12.50
2017,05,09,11,04,12.50
2017,05,09,11,05,12.60
2017,05,09,11,06,12.50
2017,05,09,11,07,12.50
2017,05,09,11,08,12.40
2017,05,09,11,09,12.40
2017,05,09,11,10,12.40
2017,05,09,11,11,12.40
2017,05,09,11,12,12.40
2017,05,09,11,13,12.50
2017,05,09,11,14,12.60
2017,05,09,11,15,12.60
2017,05,09,11,16,12.60
2017,05,09,11,17,12.60
2017,05,09,11,18,12.60
2017,05,09,11,19,12.60
2017,05,09,11,20,12.60
2017,05,09,11,21,12.60
2017,05,09,11,22,12.70
2017,05,09,11,23,12.80
2017,05,09,11,24,12.80
2017,05,09,11,25,12.90
2017,05,09,11,26,13.00
2017,05,09,11,27,13.00
2017,05,09,11,28,13.00
2017,05,09,11,29,13.00
2017,05,09,11,30,13.00
2017,05,09,11,31,13.00
2017,05,09,11,32,13.00
2017,05,09,11,33,13.00
2017,05,09,11,34,13.00
2017,05,09,11,35,13.10
2017,05,09,11,36,13.10
2017,05,09,11,37,13.20
2017,05,09,11,38,13.20
2017,05,09,11,39,13.20
2017,05,09,11,40,13.30
2017,05,09,11,41,13.30
2017,05,09,11,42,13.30
2017,05,09,11,43,13.40
2017,05,09,11,44,13.50
2017,05,09,11,45,13.60
2017,05,09,11,46,13.60
2017,05,09,11,47,13.60
2017,05,09,11,48,13.70
2017,05,09,11,49,13.60
2017,05,09,11,50,13.60
2017,05,09,11,51,13.60
2017,05,09,11,52,13.60
2017,05,09,11,53,13.60
2017,05,09,11,54,13.60
2017,05,09,11,55,13.70
2017,05,09,11,56,13.80
2017,05,09,11,57,13.90
2017,05,09,11,58,13.90
2017,05,09,11,59,13.90
2017,05,09,12,00,14.00
2017,05,09,12,01,14.00
2017,05,09,12,02,14.00
2017,05,09,12,03,14.00
2017,05,09,12,04,14.10
2017,05,09,12,05,14.10
2017,05,09,12,06,14.10
2017,05,09,12,07,14.10
2017,05,09,12,08,14.20
2017,05,09,12,09,14.20
2017,05,09,12,10,14.30
2017,05,09,12,11,14.30
2017,05,09,12,12,14.40
2017,05,09,12,13,14.50
2017,05,09,12,14,14.60
2017,05,09,12,15,14.60
2017,05,09,12,16,14.60
2017,05,09,12,17,14.60
2017,05,09,12,18,14.50
2017,05,09,12,19,14.50
2017,05,09,12,20,14.50
2017,05,09,12,21,14.50
2017,05,09,12,22,14.50
2017,05,09,12,23,14.60
2017,05,09,12,24,14.60
2017,05,09,12,25,14.70
2017,05,09,12,26,14.70
2017,05,09,12,27,14.70
2017,05,09,12,28,14.70
2017,05,09,12,29,14.80
2017,05,09,12,30,14.80
2017,05,09,12,31,14.80
2017,05,09,12,32,14.90
2017,05,09,12,33,14.90
2017,05,09,12,34,14.90
2017,05,09,12,35,14.90
2017,05,09,12,36,14.80
2017,05,09,12,37,14.80
2017,05,09,12,38,14.80
2017,05,09,12,39,14.80
2017,05,09,12,40,14.80
2017,05,09,12,41,14.80
2017,05,09,12,42,14.80
2017,05,09,12,43,14.90
2017,05,09,12,44,15.00
2017,05,09,12,45,15.10
2017,05,09,12,46,15.10
2017,05,09,12,47,15.10
2017,05,09,12,48,15.10
2017,05,09,12,49,15.00
2017,05,09,12,50,15.00
2017,05,09,12,51,14.90
2017,05,09,12,52,15.00
2017,05,09,12,53,15.00
2017,05,09,12,54,15.00
2017,05,09,12,55,15.00
2017,05,09,12,56,15.00
2017,05,09,12,57,15.10
2017,05,09,12,58,15.20
2017,05,09,12,59,15.20
2017,05,09,13,00,15.20
2017,05,09,13,01,15.20
2017,05,09,13,02,15.20
2017,05,09,13,03,15.20
2017,05,09,13,04,15.10
2017,05,09,13,05,15.10
2017,05,09,13,06,15.10
2017,05,09,13,07,15.10
2017,05,09,13,08,15.10
2017,05,09,13,09,15.10
2017,05,09,13,10,15.10
2017,05,09,13,11,15.10
2017,05,09,13,12,15.10
2017,05,09,13,13,15.20
2017,05,09,13,14,15.20
2017,05,09,13,15,15.20
2017,05,09,13,16,15.30
2017,05,09,13,17,15.30
2017,05,09,13,18,15.20
2017,05,09,13,19,15.20
2017,05,09,13,20,15.20
2017,05,09,13,21,15.20
2017,05,09,13,22,15.20
2017,05,09,13,23,15.20
2017,05,09,13,24,15.20
2017,05,09,13,25,15.20
2017,05,09,13,26,15.20
2017,05,09,13,27,15.20
2017,05,09,13,28,15.20
2017,05,09,13,29,15.20
2017,05,09,13,30,15.30
2017,05,09,13,31,15.30
2017,05,09,13,32,15.30
2017,05,09,13,33,15.40
2017,05,09,13,34,15.40
2017,05,09,13,35,15.40
2017,05,09,13,36,15.40
2017,05,09,13,37,15.40
2017,05,09,13,38,15.50
2017,05,09,13,39,15.50
2017,05,09,13,40,15.60
2017,05,09,13,41,15.60
2017,05,09,13,42,15.60
2017,05,09,13,43,15.60
2017,05,09,13,44,15.60
2017,05,09,13,45,15.70
2017,05,09,13,46,15.70
2017,05,09,13,47,15.70
2017,05,09,13,48,15.70
2017,05,09,13,49,15.70
2017,05,09,13,50,15.80
2017,05,09,13,51,15.80
2017,05,09,13,52,15.90
2017,05,09,13,53,15.90
2017,05,09,13,54,16.00
2017,05,09,13,55,16.00
2017,05,09,13,56,16.00
2017,05,09,13,57,15.90
2017,05,09,13,58,15.90
2017,05,09,13,59,15.90
2017,05,09,14,00,15.90
2017,05,09,14,01,15.90
2017,05,09,14,02,15.90
2017,05,09,14,03,16.00
2017,05,09,14,04,16.00
2017,05,09,14,05,16.00
2017,05,09,14,06,16.00
2017,05,09,14,07,16.00
2017,05,09,14,08,16.00
2017,05,09,14,09,16.00
2017,05,09,14,10,16.10
2017,05,09,14,11,16.00
2017,05,09,14,12,15.90
2017,05,09,14,13,15.90
2017,05,09,14,14,15.90
2017,05,09,14,15,16.00
2017,05,09,14,16,16.00
2017,05,09,14,17,16.10
2017,05,09,14,18,16.10
2017,05,09,14,19,16.20
2017,05,09,14,20,16.10
2017,05,09,14,21,16.10
2017,05,09,14,22,16.10
2017,05,09,14,23,16.10
2017,05,09,14,24,16.10
2017,05,09,14,25,16.10
2017,05,09,14,26,16.10
2017,05,09,14,27,16.10
2017,05,09,14,28,16.20
2017,05,09,14,29,16.20
2017,05,09,14,30,16.20
2017,05,09,14,31,16.20
2017,05,09,14,32,16.10
2017,05,09,14,33,16.10
2017,05,09,14,34,16.10
2017,05,09,14,35,16.10
